| time (UTC) | temp F | wind direction | speed MPH | gust MPH | rain 1hr in | rain 24hr in | rain mn in | humidity % | barometer mb |
| 20260902024113 | 85 | 209 | 1.0 | 2.0 | 0.00 | 0.00 | 0.00 | 70 | 999.3 |
| 20260902023611 | 85 | 209 | 1.0 | 3.0 | 0.00 | 0.00 | 0.00 | 69 | 999.3 |
| 20260902023111 | 85 | 209 | 1.0 | 3.0 | 0.00 | 0.00 | 0.00 | 68 | 999.2 |
| 20260902022612 | 86 | 209 | 1.0 | 2.0 | 0.00 | 0.00 | 0.00 | 68 | 999.2 |
| 20260902022112 | 86 | 209 | 0.0 | 2.0 | 0.00 | 0.00 | 0.00 | 67 | 999.2 |
| 20260902021843 | 87 | 209 | 0.0 | 1.0 | 0.00 | 0.00 | 0.00 | 66 | 999.0 |
| 20260902021110 | 87 | 209 | 0.0 | 0.0 | 0.00 | 0.00 | 0.00 | 65 | 999.0 |
| 20260902020610 | 88 | 209 | 0.0 | 1.0 | 0.00 | 0.00 | 0.00 | 64 | 999.0 |
| 20260902020110 | 88 | 209 | 0.0 | 1.0 | 0.00 | 0.00 | 0.00 | 63 | 999.0 |
| 20260902015610 | 89 | 209 | 1.0 | 2.0 | 0.00 | 0.00 | 0.00 | 62 | 998.9 |
| 20260902015341 | 90 | 209 | 2.0 | 2.0 | 0.00 | 0.00 | 0.00 | 61 | 998.9 |
| 20260902014611 | 90 | 209 | 0.0 | 2.0 | 0.00 | 0.00 | 0.00 | 59 | 998.8 |
| 20260902014110 | 90 | 209 | 0.0 | 2.0 | 0.00 | 0.00 | 0.00 | 58 | 998.8 |
| 20260902013611 | 91 | 209 | 0.0 | 2.0 | 0.00 | 0.00 | 0.00 | 57 | 998.7 |
| 20260902013112 | 91 | 209 | 1.0 | 3.0 | 0.00 | 0.00 | 0.00 | 57 | 998.6 |
| 20260902012609 | 91 | 209 | 1.0 | 3.0 | 0.00 | 0.00 | 0.00 | 56 | 998.6 |
| 20260902012109 | 92 | 210 | 1.0 | 4.0 | 0.00 | 0.00 | 0.00 | 56 | 998.5 |
| 20260902011610 | 92 | 185 | 1.0 | 5.0 | 0.00 | 0.00 | 0.00 | 56 | 998.6 |
| 20260902011110 | 92 | 223 | 2.0 | 5.0 | 0.00 | 0.00 | 0.00 | 55 | 998.5 |
| 20260902010841 | 92 | 250 | 2.0 | 6.0 | 0.00 | 0.00 | 0.00 | 55 | 998.5 |
| 20260902010109 | 92 | 244 | 4.0 | 6.0 | 0.00 | 0.00 | 0.00 | 54 | 998.4 |
| 20260902005609 | 93 | 251 | 4.0 | 6.0 | 0.00 | 0.00 | 0.00 | 54 | 998.3 |
| 20260902005341 | 93 | 209 | 3.0 | 6.0 | 0.00 | 0.00 | 0.00 | 53 | 998.2 |
| 20260902004610 | 93 | 247 | 4.0 | 9.0 | 0.00 | 0.00 | 0.00 | 52 | 998.2 |
| 20260902004341 | 93 | 238 | 4.0 | 9.0 | 0.00 | 0.00 | 0.00 | 52 | 998.2 |
| 20260902003840 | 94 | 250 | 4.0 | 6.0 | 0.00 | 0.00 | 0.00 | 52 | 998.2 |
| 20260902003109 | 94 | 217 | 4.0 | 7.0 | 0.00 | 0.00 | 0.00 | 51 | 998.2 |
| 20260902002609 | 94 | 258 | 5.0 | 7.0 | 0.00 | 0.00 | 0.00 | 51 | 998.1 |
| 20260902002109 | 94 | 230 | 4.0 | 7.0 | 0.00 | 0.00 | 0.00 | 51 | 998.2 |
| 20260902001608 | 95 | 244 | 4.0 | 13.0 | 0.00 | 0.00 | 0.00 | 50 | 998.1 |
| 20260902001109 | 95 | 219 | 6.0 | 13.0 | 0.00 | 0.00 | 0.00 | 50 | 998.1 |
| 20260902000609 | 95 | 234 | 5.0 | 12.0 | 0.00 | 0.00 | 0.00 | 50 | 998.1 |
| 20260902000107 | 96 | 233 | 6.0 | 12.0 | 0.00 | 0.00 | 0.00 | 50 | 998.1 |
| 20260901235607 | 96 | 261 | 6.0 | 12.0 | 0.00 | 0.00 | 0.00 | 50 | 998.0 |
| 20260901235107 | 96 | 219 | 6.0 | 10.0 | 0.00 | 0.00 | 0.00 | 50 | 998.1 |
| 20260901234608 | 97 | 192 | 7.0 | 10.0 | 0.00 | 0.00 | 0.00 | 49 | 998.1 |
| 20260901234108 | 97 | 252 | 4.0 | 9.0 | 0.00 | 0.00 | 0.00 | 49 | 998.1 |
| 20260901233607 | 98 | 195 | 3.0 | 4.0 | 0.00 | 0.00 | 0.00 | 48 | 998.2 |
| 20260901233108 | 98 | 224 | 1.0 | 5.0 | 0.00 | 0.00 | 0.00 | 47 | 998.2 |
| 20260901232608 | 98 | 155 | 3.0 | 5.0 | 0.00 | 0.00 | 0.00 | 47 | 998.2 |
| 20260901232106 | 98 | 106 | 1.0 | 3.0 | 0.00 | 0.00 | 0.00 | 47 | 998.2 |
| 20260901231607 | 98 | 107 | 1.0 | 3.0 | 0.00 | 0.00 | 0.00 | 46 | 998.1 |
| 20260901231107 | 98 | 214 | 0.0 | 4.0 | 0.00 | 0.00 | 0.00 | 45 | 998.1 |
| 20260901230607 | 98 | 214 | 2.0 | 4.0 | 0.00 | 0.00 | 0.00 | 45 | 998.2 |
| 20260901230108 | 98 | 248 | 2.0 | 3.0 | 0.00 | 0.00 | 0.00 | 44 | 998.2 |
| 20260901225607 | 98 | 248 | 2.0 | 3.0 | 0.00 | 0.00 | 0.00 | 44 | 998.2 |
| 20260901225106 | 98 | 248 | 1.0 | 5.0 | 0.00 | 0.00 | 0.00 | 45 | 998.2 |
| 20260901224606 | 98 | 248 | 2.0 | 5.0 | 0.00 | 0.00 | 0.00 | 44 | 998.1 |
| 20260901224105 | 98 | 251 | 3.0 | 5.0 | 0.00 | 0.00 | 0.00 | 43 | 998.1 |
| 20260901223838 | 98 | 219 | 3.0 | 5.0 | 0.00 | 0.00 | 0.00 | 43 | 998.2 |
| 20260901223104 | 99 | 219 | 3.0 | 5.0 | 0.00 | 0.00 | 0.00 | 42 | 998.2 |
| 20260901222604 | 99 | 213 | 3.0 | 4.0 | 0.00 | 0.00 | 0.00 | 41 | 998.2 |
| 20260901222105 | 100 | 134 | 2.0 | 6.0 | 0.00 | 0.00 | 0.00 | 41 | 998.1 |
| 20260901221606 | 100 | 257 | 2.0 | 6.0 | 0.00 | 0.00 | 0.00 | 40 | 998.1 |
| 20260901221106 | 100 | 231 | 4.0 | 10.0 | 0.00 | 0.00 | 0.00 | 40 | 998.2 |
| 20260901220605 | 100 | 204 | 4.0 | 10.0 | 0.00 | 0.00 | 0.00 | 39 | 998.1 |
| 20260901220104 | 100 | 210 | 5.0 | 7.0 | 0.00 | 0.00 | 0.00 | 39 | 998.1 |
| 20260901215605 | 100 | 251 | 4.0 | 7.0 | 0.00 | 0.00 | 0.00 | 39 | 998.1 |
| 20260901215104 | 100 | 261 | 5.0 | 7.0 | 0.00 | 0.00 | 0.00 | 39 | 998.1 |
| 20260901214604 | 101 | 161 | 3.0 | 6.0 | 0.00 | 0.00 | 0.00 | 39 | 998.2 |
| 20260901214334 | 101 | 219 | 4.0 | 6.0 | 0.00 | 0.00 | 0.00 | 39 | 998.2 |
| 20260901213604 | 101 | 168 | 3.0 | 6.0 | 0.00 | 0.00 | 0.00 | 40 | 998.2 |
| 20260901212604 | 100 | 75 | 2.0 | 9.0 | 0.00 | 0.00 | 0.00 | 39 | 998.2 |
| 20260901212104 | 100 | 186 | 3.0 | 10.0 | 0.00 | 0.00 | 0.00 | 39 | 998.2 |
| 20260901211834 | 101 | 197 | 6.0 | 10.0 | 0.00 | 0.00 | 0.00 | 39 | 998.3 |
| 20260901211335 | 101 | 268 | 3.0 | 5.0 | 0.00 | 0.00 | 0.00 | 39 | 998.3 |
| 20260901210604 | 100 | 269 | 3.0 | 5.0 | 0.00 | 0.00 | 0.00 | 39 | 998.4 |
| 20260901210332 | 100 | 27 | 2.0 | 5.0 | 0.00 | 0.00 | 0.00 | 38 | 998.3 |
| 20260901205603 | 100 | 0 | 1.0 | 4.0 | 0.00 | 0.00 | 0.00 | 39 | 998.4 |
| 20260901205103 | 100 | 274 | 1.0 | 4.0 | 0.00 | 0.00 | 0.00 | 39 | 998.4 |
| 20260901204834 | 100 | 0 | 1.0 | 4.0 | 0.00 | 0.00 | 0.00 | 39 | 998.5 |
| 20260901204102 | 100 | 269 | 2.0 | 4.0 | 0.00 | 0.00 | 0.00 | 38 | 998.5 |
| 20260901203602 | 100 | 245 | 4.0 | 6.0 | 0.00 | 0.00 | 0.00 | 38 | 998.5 |
| 20260901203100 | 100 | 244 | 4.0 | 6.0 | 0.00 | 0.00 | 0.00 | 38 | 998.6 |
| 20260901202602 | 100 | 210 | 2.0 | 6.0 | 0.00 | 0.00 | 0.00 | 38 | 998.6 |
| 20260901202101 | 99 | 204 | 2.0 | 7.0 | 0.00 | 0.00 | 0.00 | 39 | 998.6 |
| 20260901201600 | 99 | 258 | 2.0 | 7.0 | 0.00 | 0.00 | 0.00 | 40 | 998.8 |
| 20260901201100 | 100 | 214 | 2.0 | 10.0 | 0.00 | 0.00 | 0.00 | 40 | 998.8 |
| 20260901200602 | 100 | 221 | 3.0 | 13.0 | 0.00 | 0.00 | 0.00 | 39 | 998.9 |
| 20260901195601 | 101 | 257 | 4.0 | 12.0 | 0.00 | 0.00 | 0.00 | 40 | 998.9 |
| 20260901195102 | 101 | 210 | 1.0 | 6.0 | 0.00 | 0.00 | 0.00 | 40 | 999.0 |
| 20260901194600 | 100 | 220 | 2.0 | 11.0 | 0.00 | 0.00 | 0.00 | 40 | 999.1 |
| 20260901194100 | 100 | 340 | 2.0 | 11.0 | 0.00 | 0.00 | 0.00 | 41 | 999.1 |
| 20260901193600 | 100 | 252 | 2.0 | 10.0 | 0.00 | 0.00 | 0.00 | 40 | 999.2 |
| 20260901193335 | 100 | 317 | 2.0 | 5.0 | 0.00 | 0.00 | 0.00 | 42 | 999.2 |
| 20260901192836 | 99 | 323 | 3.0 | 10.0 | 0.00 | 0.00 | 0.00 | 43 | 999.3 |
| 20260901192101 | 99 | 278 | 5.0 | 11.0 | 0.00 | 0.00 | 0.00 | 42 | 999.4 |
| 20260901191601 | 99 | 274 | 2.0 | 11.0 | 0.00 | 0.00 | 0.00 | 42 | 999.3 |
| 20260901191100 | 99 | 197 | 4.0 | 10.0 | 0.00 | 0.00 | 0.00 | 42 | 999.5 |
| 20260901190559 | 99 | 266 | 6.0 | 13.0 | 0.00 | 0.00 | 0.00 | 42 | 999.7 |
| 20260901190331 | 100 | 254 | 6.0 | 13.0 | 0.00 | 0.00 | 0.00 | 41 | 999.7 |
| 20260901185600 | 100 | 282 | 0.0 | 5.0 | 0.00 | 0.00 | 0.00 | 43 | 999.7 |
| 20260901185059 | 99 | 213 | 1.0 | 5.0 | 0.00 | 0.00 | 0.00 | 44 | 999.7 |
| 20260901184600 | 98 | 230 | 3.0 | 10.0 | 0.00 | 0.00 | 0.00 | 46 | 999.7 |
| 20260901184059 | 98 | 251 | 5.0 | 10.0 | 0.00 | 0.00 | 0.00 | 45 | 999.7 |
| 20260901183558 | 99 | 255 | 6.0 | 10.0 | 0.00 | 0.00 | 0.00 | 44 | 999.8 |
| 20260901183058 | 99 | 255 | 6.0 | 10.0 | 0.00 | 0.00 | 0.00 | 44 | 1000.0 |
| 20260901182559 | 99 | 247 | 4.0 | 9.0 | 0.00 | 0.00 | 0.00 | 44 | 1000.0 |
| 20260901182328 | 99 | 252 | 5.0 | 9.0 | 0.00 | 0.00 | 0.00 | 45 | 1000.0 |
| 20260901181558 | 98 | 223 | 6.0 | 7.0 | 0.00 | 0.00 | 0.00 | 45 | 1000.1 |
| 20260901181056 | 98 | 228 | 2.0 | 9.0 | 0.00 | 0.00 | 0.00 | 48 | 1000.1 |
| 20260901180611 | 98 | 258 | 5.0 | 9.0 | 0.00 | 0.00 | 0.00 | 46 | 1000.2 |
| 20260901180058 | 98 | 237 | 4.0 | 6.0 | 0.00 | 0.00 | 0.00 | 46 | 1000.3 |
| 20260901175828 | 98 | 237 | 4.0 | 12.0 | 0.00 | 0.00 | 0.00 | 46 | 1000.3 |
| 20260901175057 | 98 | 212 | 6.0 | 12.0 | 0.00 | 0.00 | 0.00 | 45 | 1000.5 |
| 20260901174556 | 98 | 241 | 6.0 | 11.0 | 0.00 | 0.00 | 0.00 | 45 | 1000.5 |
| 20260901173555 | 0 | 0.0 | 0.0 | 0.00 | 0.00 | 0.00 | 1000.7 | ||
| 20260901173054 | 0 | 0.0 | 0.0 | 0.00 | 0.00 | 0.00 | 1000.7 | ||
| 20260901172554 | 97 | 252 | 5.0 | 10.0 | 0.00 | 0.00 | 0.00 | 49 | 1000.8 |
| 20260901172323 | 97 | 252 | 5.0 | 13.0 | 0.00 | 0.00 | 0.00 | 49 | 1000.8 |
| 20260901171552 | 96 | 264 | 8.0 | 13.0 | 0.00 | 0.00 | 0.00 | 50 | 1000.8 |
| 20260901171051 | 96 | 243 | 8.0 | 10.0 | 0.00 | 0.00 | 0.00 | 51 | 1000.9 |
| 20260901170822 | 96 | 237 | 5.0 | 14.0 | 0.00 | 0.00 | 0.00 | 51 | 1001.0 |
| 20260901170051 | 96 | 241 | 8.0 | 14.0 | 0.00 | 0.00 | 0.00 | 51 | 1001.0 |
| 20260901165551 | 96 | 185 | 4.0 | 11.0 | 0.00 | 0.00 | 0.00 | 52 | 1001.0 |
| 20260901165050 | 95 | 261 | 5.0 | 14.0 | 0.00 | 0.00 | 0.00 | 53 | 1001.1 |
| 20260901164549 | 95 | 231 | 7.0 | 14.0 | 0.00 | 0.00 | 0.00 | 53 | 1001.2 |
| 20260901164051 | 95 | 248 | 4.0 | 10.0 | 0.00 | 0.00 | 0.00 | 53 | 1001.3 |
| 20260901163822 | 95 | 247 | 4.0 | 12.0 | 0.00 | 0.00 | 0.00 | 55 | 1001.4 |
| 20260901163051 | 95 | 250 | 7.0 | 12.0 | 0.00 | 0.00 | 0.00 | 55 | 1001.3 |
| 20260901162551 | 95 | 238 | 6.0 | 9.0 | 0.00 | 0.00 | 0.00 | 54 | 1001.4 |
| 20260901161550 | 94 | 251 | 2.0 | 12.0 | 0.00 | 0.00 | 0.00 | 56 | 1001.4 |
| 20260901161322 | 94 | 286 | 5.0 | 13.0 | 0.00 | 0.00 | 0.00 | 57 | 1001.5 |
| 20260901160549 | 93 | 223 | 9.0 | 13.0 | 0.00 | 0.00 | 0.00 | 57 | 1001.5 |
| 20260901160052 | 93 | 268 | 7.0 | 11.0 | 0.00 | 0.00 | 0.00 | 57 | 1001.5 |
| 20260901155550 | 94 | 233 | 6.0 | 10.0 | 0.00 | 0.00 | 0.00 | 57 | 1001.6 |
| 20260901155049 | 93 | 262 | 3.0 | 11.0 | 0.00 | 0.00 | 0.00 | 61 | 1001.6 |
| 20260901154820 | 92 | 261 | 4.0 | 11.0 | 0.00 | 0.00 | 0.00 | 60 | 1001.5 |
| 20260901154052 | 92 | 240 | 6.0 | 9.0 | 0.00 | 0.00 | 0.00 | 61 | 1001.6 |
| 20260901153820 | 92 | 234 | 4.0 | 10.0 | 0.00 | 0.00 | 0.00 | 62 | 1001.6 |
| 20260901153049 | 91 | 238 | 3.0 | 10.0 | 0.00 | 0.00 | 0.00 | 62 | 1001.6 |
| 20260901152548 | 91 | 259 | 7.0 | 10.0 | 0.00 | 0.00 | 0.00 | 64 | 1001.7 |
| 20260901152049 | 90 | 247 | 3.0 | 5.0 | 0.00 | 0.00 | 0.00 | 65 | 1001.6 |
| 20260901151550 | 89 | 261 | 0.0 | 3.0 | 0.00 | 0.00 | 0.00 | 66 | 1001.7 |
| 20260901151048 | 89 | 241 | 0.0 | 0.0 | 0.00 | 0.00 | 0.00 | 68 | 1001.8 |
| 20260901150548 | 88 | 251 | 0.0 | 0.0 | 0.00 | 0.00 | 0.00 | 68 | 1001.8 |
| 20260901150049 | 87 | 252 | 0.0 | 0.0 | 0.00 | 0.00 | 0.00 | 69 | 1001.8 |
| 20260901145548 | 87 | 235 | 0.0 | 0.0 | 0.00 | 0.00 | 0.00 | 69 | 1001.9 |
| 20260901145049 | 86 | 254 | 0.0 | 0.0 | 0.00 | 0.00 | 0.00 | 72 | 1001.9 |
| 20260901144550 | 85 | 248 | 0.0 | 0.0 | 0.00 | 0.00 | 0.00 | 72 | 1001.9 |
| 20260901144048 | 85 | 255 | 0.0 | 0.0 | 0.00 | 0.00 | 0.00 | 73 | 1002.0 |
| 20260901143546 | 84 | 255 | 0.0 | 0.0 | 0.00 | 0.00 | 0.00 | 73 | 1001.9 |
| 20260901143047 | 84 | 255 | 0.0 | 0.0 | 0.00 | 0.00 | 0.00 | 74 | 1002.1 |
| 20260901142548 | 82 | 227 | 0.0 | 0.0 | 0.00 | 0.00 | 0.00 | 76 | 1002.1 |
| 20260901142048 | 82 | 238 | 0.0 | 0.0 | 0.00 | 0.00 | 0.00 | 77 | 1002.1 |
| 20260901141547 | 80 | 188 | 0.0 | 0.0 | 0.00 | 0.00 | 0.00 | 80 | 1002.2 |
| 20260901141046 | 80 | 188 | 0.0 | 0.0 | 0.00 | 0.00 | 0.00 | 80 | 1002.2 |
| 20260901140548 | 79 | 188 | 0.0 | 0.0 | 0.00 | 0.00 | 0.00 | 81 | 1002.3 |
| 20260901140046 | 78 | 186 | 0.0 | 0.0 | 0.00 | 0.00 | 0.00 | 82 | 1002.3 |
| 20260901135544 | 78 | 180 | 0.0 | 0.0 | 0.00 | 0.00 | 0.00 | 83 | 1002.2 |
| 20260901135315 | 77 | 179 | 0.0 | 0.0 | 0.00 | 0.00 | 0.00 | 84 | 1002.2 |
| 20260901134544 | 76 | 179 | 0.0 | 0.0 | 0.00 | 0.00 | 0.00 | 87 | 1002.3 |
| 20260901134045 | 75 | 179 | 0.0 | 0.0 | 0.00 | 0.00 | 0.00 | 89 | 1002.3 |
| 20260901133558 | 75 | 179 | 0.0 | 0.0 | 0.00 | 0.00 | 0.00 | 90 | 1002.3 |
| 20260901133317 | 74 | 179 | 0.0 | 0.0 | 0.00 | 0.00 | 0.00 | 90 | 1002.3 |
| 20260901132549 | 73 | 179 | 0.0 | 0.0 | 0.00 | 0.00 | 0.00 | 90 | 1002.3 |
| 20260901132316 | 73 | 178 | 0.0 | 0.0 | 0.00 | 0.00 | 0.00 | 92 | 1002.3 |
| 20260901131544 | 73 | 178 | 0.0 | 0.0 | 0.00 | 0.00 | 0.00 | 92 | 1002.3 |
| 20260901131045 | 72 | 178 | 0.0 | 0.0 | 0.00 | 0.00 | 0.00 | 92 | 1002.3 |
| 20260901130544 | 72 | 175 | 0.0 | 0.0 | 0.00 | 0.00 | 0.00 | 93 | 1002.4 |
| 20260901130045 | 71 | 175 | 0.0 | 0.0 | 0.00 | 0.00 | 0.00 | 93 | 1002.3 |
| 20260901125545 | 71 | 166 | 0.0 | 0.0 | 0.00 | 0.00 | 0.00 | 94 | 1002.4 |
| 20260901125044 | 71 | 166 | 0.0 | 0.0 | 0.00 | 0.00 | 0.00 | 94 | 1002.4 |
| 20260901124554 | 70 | 118 | 0.0 | 0.0 | 0.00 | 0.00 | 0.00 | 95 | 1002.4 |
| 20260901124045 | 70 | 102 | 0.0 | 0.0 | 0.00 | 0.00 | 0.00 | 94 | 1002.3 |
| 20260901123544 | 70 | 102 | 0.0 | 0.0 | 0.00 | 0.00 | 0.00 | 94 | 1002.4 |
| 20260901123314 | 69 | 102 | 0.0 | 0.0 | 0.00 | 0.00 | 0.00 | 94 | 1002.4 |
| 20260901122815 | 69 | 102 | 0.0 | 0.0 | 0.00 | 0.00 | 0.00 | 94 | 1002.3 |
| 20260901122044 | 69 | 102 | 0.0 | 0.0 | 0.00 | 0.00 | 0.00 | 94 | 1002.2 |
| 20260901121544 | 69 | 102 | 0.0 | 0.0 | 0.00 | 0.00 | 0.00 | 93 | 1002.2 |
| 20260901121044 | 69 | 102 | 0.0 | 0.0 | 0.00 | 0.00 | 0.00 | 93 | 1002.2 |
| 20260901120543 | 69 | 102 | 0.0 | 0.0 | 0.00 | 0.00 | 0.00 | 93 | 1002.1 |
| 20260901120043 | 69 | 102 | 0.0 | 0.0 | 0.00 | 0.00 | 0.00 | 93 | 1002.1 |
| 20260901115542 | 69 | 134 | 0.0 | 0.0 | 0.00 | 0.00 | 0.00 | 93 | 1002.0 |
| 20260901115044 | 69 | 134 | 0.0 | 0.0 | 0.00 | 0.00 | 0.00 | 93 | 1002.0 |
| 20260901114543 | 69 | 134 | 0.0 | 0.0 | 0.00 | 0.00 | 0.00 | 93 | 1001.9 |
| 20260901114314 | 69 | 134 | 0.0 | 0.0 | 0.00 | 0.00 | 0.00 | 93 | 1001.8 |
| 20260901113542 | 69 | 134 | 0.0 | 0.0 | 0.00 | 0.00 | 0.00 | 93 | 1001.8 |
| 20260901113044 | 69 | 134 | 0.0 | 0.0 | 0.00 | 0.00 | 0.00 | 93 | 1001.7 |
| 20260901112542 | 69 | 134 | 0.0 | 0.0 | 0.00 | 0.00 | 0.00 | 93 | 1001.8 |
| 20260901112042 | 69 | 134 | 0.0 | 0.0 | 0.00 | 0.00 | 0.00 | 93 | 1001.8 |
| 20260901111542 | 69 | 134 | 0.0 | 0.0 | 0.00 | 0.00 | 0.00 | 93 | 1001.7 |
| 20260901111041 | 69 | 134 | 0.0 | 0.0 | 0.00 | 0.00 | 0.00 | 93 | 1001.6 |
| 20260901110542 | 69 | 134 | 0.0 | 0.0 | 0.00 | 0.00 | 0.00 | 93 | 1001.6 |
| 20260901110042 | 70 | 134 | 0.0 | 0.0 | 0.00 | 0.00 | 0.00 | 92 | 1001.5 |
| 20260901105542 | 70 | 134 | 0.0 | 0.0 | 0.00 | 0.00 | 0.00 | 92 | 1001.5 |
| 20260901105041 | 70 | 134 | 0.0 | 0.0 | 0.00 | 0.00 | 0.00 | 92 | 1001.5 |
| 20260901104040 | 70 | 134 | 0.0 | 0.0 | 0.00 | 0.00 | 0.00 | 92 | 1001.4 |
| 20260901103540 | 70 | 134 | 0.0 | 0.0 | 0.00 | 0.00 | 0.00 | 92 | 1001.5 |
| 20260901103041 | 70 | 134 | 0.0 | 0.0 | 0.00 | 0.00 | 0.00 | 92 | 1001.4 |
| 20260901102541 | 70 | 134 | 0.0 | 0.0 | 0.00 | 0.00 | 0.00 | 92 | 1001.4 |
| 20260901102041 | 70 | 134 | 0.0 | 0.0 | 0.00 | 0.00 | 0.00 | 92 | 1001.4 |
| 20260901101541 | 70 | 134 | 0.0 | 0.0 | 0.00 | 0.00 | 0.00 | 92 | 1001.4 |
| 20260901101041 | 70 | 134 | 0.0 | 0.0 | 0.00 | 0.00 | 0.00 | 92 | 1001.3 |
| 20260901100542 | 70 | 134 | 0.0 | 0.0 | 0.00 | 0.00 | 0.00 | 92 | 1001.2 |
| 20260901100312 | 70 | 134 | 0.0 | 0.0 | 0.00 | 0.00 | 0.00 | 92 | 1001.2 |
| 20260901095541 | 70 | 134 | 0.0 | 0.0 | 0.00 | 0.00 | 0.00 | 92 | 1001.2 |
| 20260901095041 | 70 | 134 | 0.0 | 0.0 | 0.00 | 0.00 | 0.00 | 92 | 1001.3 |
| 20260901094541 | 71 | 134 | 0.0 | 0.0 | 0.00 | 0.00 | 0.00 | 91 | 1001.2 |
| 20260901094040 | 71 | 134 | 0.0 | 0.0 | 0.00 | 0.00 | 0.00 | 91 | 1001.2 |
| 20260901093810 | 71 | 134 | 0.0 | 0.0 | 0.00 | 0.00 | 0.00 | 91 | 1001.1 |
| 20260901093040 | 71 | 134 | 0.0 | 0.0 | 0.00 | 0.00 | 0.00 | 91 | 1001.1 |
| 20260901092540 | 71 | 134 | 0.0 | 0.0 | 0.00 | 0.00 | 0.00 | 91 | 1001.1 |
| 20260901092039 | 71 | 134 | 0.0 | 0.0 | 0.00 | 0.00 | 0.00 | 91 | 1001.1 |
| 20260901091540 | 71 | 134 | 0.0 | 0.0 | 0.00 | 0.00 | 0.00 | 91 | 1001.0 |
| 20260901091309 | 71 | 134 | 0.0 | 0.0 | 0.00 | 0.00 | 0.00 | 91 | 1001.0 |
| 20260901090811 | 71 | 134 | 0.0 | 0.0 | 0.00 | 0.00 | 0.00 | 91 | 1000.9 |
| 20260901090038 | 71 | 134 | 0.0 | 0.0 | 0.00 | 0.00 | 0.00 | 91 | 1000.9 |
| 20260901085539 | 71 | 134 | 0.0 | 0.0 | 0.00 | 0.00 | 0.00 | 90 | 1000.9 |
| 20260901085041 | 71 | 134 | 0.0 | 0.0 | 0.00 | 0.00 | 0.00 | 90 | 1000.9 |
| 20260901084538 | 71 | 134 | 0.0 | 0.0 | 0.00 | 0.00 | 0.00 | 90 | 1000.8 |
| 20260901084039 | 71 | 134 | 0.0 | 0.0 | 0.00 | 0.00 | 0.00 | 90 | 1000.7 |
| 20260901083538 | 71 | 134 | 0.0 | 0.0 | 0.00 | 0.00 | 0.00 | 90 | 1000.6 |
| 20260901083039 | 71 | 134 | 0.0 | 0.0 | 0.00 | 0.00 | 0.00 | 90 | 1000.6 |
| 20260901082537 | 71 | 134 | 0.0 | 0.0 | 0.00 | 0.00 | 0.00 | 90 | 1000.6 |
| 20260901082038 | 71 | 134 | 0.0 | 0.0 | 0.00 | 0.00 | 0.00 | 90 | 1000.6 |
| 20260901081537 | 72 | 134 | 0.0 | 0.0 | 0.00 | 0.00 | 0.00 | 89 | 1000.6 |
| 20260901081037 | 72 | 134 | 0.0 | 0.0 | 0.00 | 0.00 | 0.00 | 89 | 1000.5 |
| 20260901080539 | 72 | 134 | 0.0 | 0.0 | 0.00 | 0.00 | 0.00 | 88 | 1000.5 |
| 20260901080038 | 72 | 134 | 0.0 | 0.0 | 0.00 | 0.00 | 0.00 | 88 | 1000.5 |
| 20260901075537 | 72 | 134 | 0.0 | 0.0 | 0.00 | 0.00 | 0.00 | 88 | 1000.4 |
| 20260901075307 | 72 | 134 | 0.0 | 0.0 | 0.00 | 0.00 | 0.00 | 88 | 1000.6 |
| 20260901074537 | 72 | 134 | 0.0 | 0.0 | 0.00 | 0.00 | 0.00 | 88 | 1000.4 |
| 20260901074035 | 72 | 134 | 0.0 | 0.0 | 0.00 | 0.00 | 0.00 | 88 | 1000.4 |
| 20260901073537 | 72 | 134 | 0.0 | 0.0 | 0.00 | 0.00 | 0.00 | 88 | 1000.3 |
| 20260901073036 | 72 | 134 | 0.0 | 0.0 | 0.00 | 0.00 | 0.00 | 88 | 1000.3 |
| 20260901072535 | 72 | 134 | 0.0 | 0.0 | 0.00 | 0.00 | 0.00 | 88 | 1000.2 |
| 20260901072309 | 73 | 134 | 0.0 | 0.0 | 0.00 | 0.00 | 0.00 | 88 | 1000.3 |
| 20260901071535 | 73 | 134 | 0.0 | 0.0 | 0.00 | 0.00 | 0.00 | 88 | 1000.3 |
| 20260901071036 | 73 | 134 | 0.0 | 0.0 | 0.00 | 0.00 | 0.00 | 88 | 1000.3 |
| 20260901070536 | 73 | 134 | 0.0 | 0.0 | 0.00 | 0.00 | 0.00 | 88 | 1000.4 |
| 20260901070036 | 73 | 134 | 0.0 | 0.0 | 0.00 | 0.00 | 0.00 | 87 | 1000.3 |
| 20260901065808 | 73 | 134 | 0.0 | 0.0 | 0.00 | 0.00 | 0.00 | 87 | 1000.2 |
| 20260901065036 | 73 | 134 | 0.0 | 0.0 | 0.00 | 0.00 | 0.00 | 87 | 1000.2 |
| 20260901064534 | 73 | 134 | 0.0 | 0.0 | 0.00 | 0.00 | 0.00 | 87 | 1000.3 |
| 20260901064034 | 73 | 134 | 0.0 | 0.0 | 0.00 | 0.00 | 0.00 | 86 | 1000.2 |
| 20260901063535 | 74 | 134 | 0.0 | 0.0 | 0.00 | 0.00 | 0.00 | 86 | 1000.3 |
| 20260901063035 | 74 | 134 | 0.0 | 0.0 | 0.00 | 0.00 | 0.00 | 86 | 1000.4 |
| 20260901062806 | 74 | 134 | 0.0 | 0.0 | 0.00 | 0.00 | 0.00 | 86 | 1000.4 |
| 20260901062034 | 74 | 134 | 0.0 | 0.0 | 0.00 | 0.00 | 0.00 | 86 | 1000.5 |
| 20260901061535 | 74 | 134 | 0.0 | 0.0 | 0.00 | 0.00 | 0.00 | 86 | 1000.6 |
| 20260901061033 | 74 | 134 | 0.0 | 0.0 | 0.00 | 0.00 | 0.00 | 85 | 1000.5 |
| 20260901060032 | 74 | 134 | 0.0 | 0.0 | 0.00 | 0.00 | 0.00 | 85 | 1000.5 |
| 20260901055533 | 74 | 134 | 0.0 | 0.0 | 0.00 | 0.00 | 0.00 | 85 | 1000.6 |
| 20260901055033 | 74 | 134 | 0.0 | 0.0 | 0.00 | 0.00 | 0.00 | 85 | 1000.6 |
| 20260901054533 | 74 | 134 | 0.0 | 0.0 | 0.00 | 0.00 | 0.00 | 85 | 1000.7 |
| 20260901054032 | 75 | 134 | 0.0 | 0.0 | 0.00 | 0.00 | 0.00 | 84 | 1000.6 |
| 20260901053802 | 75 | 134 | 0.0 | 0.0 | 0.00 | 0.00 | 0.00 | 85 | 1000.6 |
| 20260901053033 | 75 | 134 | 0.0 | 0.0 | 0.00 | 0.00 | 0.00 | 84 | 1000.7 |
| 20260901052531 | 75 | 134 | 0.0 | 0.0 | 0.00 | 0.00 | 0.00 | 84 | 1000.6 |
| 20260901052032 | 75 | 134 | 0.0 | 0.0 | 0.00 | 0.00 | 0.00 | 83 | 1000.6 |
| 20260901051531 | 75 | 134 | 0.0 | 0.0 | 0.00 | 0.00 | 0.00 | 83 | 1000.6 |
| 20260901051032 | 75 | 134 | 0.0 | 0.0 | 0.00 | 0.00 | 0.00 | 83 | 1000.6 |
| 20260901050532 | 75 | 134 | 0.0 | 0.0 | 0.00 | 0.00 | 0.00 | 83 | 1000.6 |
| 20260901050031 | 76 | 134 | 0.0 | 0.0 | 0.00 | 0.00 | 0.00 | 83 | 1000.6 |
| 20260901045532 | 76 | 134 | 0.0 | 0.0 | 0.00 | 0.00 | 0.00 | 82 | 1000.6 |
| 20260901045033 | 76 | 134 | 0.0 | 0.0 | 0.00 | 0.00 | 0.00 | 82 | 1000.6 |
| 20260901044532 | 76 | 134 | 0.0 | 0.0 | 0.00 | 0.00 | 0.00 | 82 | 1000.7 |
| 20260901044030 | 76 | 134 | 0.0 | 0.0 | 0.00 | 0.00 | 0.00 | 82 | 1000.7 |
| 20260901043801 | 76 | 134 | 0.0 | 0.0 | 0.00 | 0.00 | 0.00 | 82 | 1000.7 |
| 20260901043031 | 76 | 134 | 0.0 | 0.0 | 0.00 | 0.00 | 0.00 | 81 | 1000.7 |
| 20260901042531 | 77 | 134 | 0.0 | 0.0 | 0.00 | 0.00 | 0.00 | 81 | 1000.7 |
| 20260901042301 | 77 | 134 | 0.0 | 0.0 | 0.00 | 0.00 | 0.00 | 80 | 1000.7 |
| 20260901041531 | 77 | 134 | 0.0 | 0.0 | 0.00 | 0.00 | 0.00 | 80 | 1000.7 |
| 20260901041302 | 77 | 134 | 0.0 | 0.0 | 0.00 | 0.00 | 0.00 | 80 | 1000.7 |
| 20260901040529 | 77 | 134 | 0.0 | 0.0 | 0.00 | 0.00 | 0.00 | 80 | 1000.7 |
| 20260901040030 | 78 | 134 | 0.0 | 0.0 | 0.00 | 0.00 | 0.00 | 79 | 1000.7 |
| 20260901035305 | 78 | 134 | 0.0 | 0.0 | 0.00 | 0.00 | 0.00 | 78 | 1000.6 |
| 20260901034530 | 78 | 134 | 0.0 | 0.0 | 0.00 | 0.00 | 0.00 | 78 | 1000.6 |
| 20260901034030 | 78 | 134 | 0.0 | 0.0 | 0.00 | 0.00 | 0.00 | 77 | 1000.7 |
| 20260901033029 | 79 | 134 | 0.0 | 0.0 | 0.00 | 0.00 | 0.00 | 77 | 1000.6 |
| 20260901032759 | 79 | 134 | 0.0 | 0.0 | 0.00 | 0.00 | 0.00 | 77 | 1000.5 |
| 20260901032028 | 79 | 134 | 0.0 | 0.0 | 0.00 | 0.00 | 0.00 | 76 | 1000.5 |
| 20260901031530 | 80 | 134 | 0.0 | 0.0 | 0.00 | 0.00 | 0.00 | 76 | 1000.4 |
| 20260901031029 | 80 | 134 | 0.0 | 0.0 | 0.00 | 0.00 | 0.00 | 76 | 1000.4 |
| 20260901030528 | 80 | 134 | 0.0 | 0.0 | 0.00 | 0.00 | 0.00 | 76 | 1000.4 |
| 20260901025527 | 80 | 134 | 0.0 | 0.0 | 0.00 | 0.00 | 0.00 | 75 | 1000.3 |
| 20260901025029 | 81 | 134 | 0.0 | 0.0 | 0.00 | 0.00 | 0.00 | 74 | 1000.3 |
| 20260901024528 | 81 | 134 | 0.0 | 0.0 | 0.00 | 0.00 | 0.00 | 73 | 1000.3 |